Regional Weather Roundup
Issued by NWS Sioux Falls, SD

Home | Current Version | Previous Version | Graphics & Text | Print | Product List | Glossary On
Versions: 1 2 3 4 5 6 7 8 9 10 11 12 13 14 15 16 17 18 19 20 21 22 23 24 25 26 27 28 29 30 31 32 33 34 35 36 37 38 39 40 41 42 43 44 45 46 47 48 49 50
000
ASUS43 KFSD 230510
RWRFSD

WEATHER ROUNDUP FOR SE SOUTH DAKOTA/SW MINNESOTA/NW IOWA
NATIONAL WEATHER SERVICE SIOUX FALLS SD
1200 AM CDT SAT AUG 23 2014

NOTE: "FAIR" INDICATES FEW OR NO CLOUDS BELOW 12,000 FEET WITH NO
SIGNIFICANT WEATHER AND OR OBSTRUCTIONS TO VISIBILITY.


SDZ038>040-050-052>070-230600-
SOUTHEAST SOUTH DAKOTA

CITY           SKY/WX    TMP DP  RH WIND       PRES   REMARKS
CHAMBERLAIN    DRIZZLE   71  69  93 E8        29.95F
HURON          CLOUDY    74  68  81 E14       29.98F
MADISON        FAIR      72  72 100 E7        30.00F
MITCHELL       CLOUDY    73  70  90 E5        29.96F
SIOUX FALLS    CLOUDY    74  69  85 E7        29.97F
WINNER         FAIR      73  68  84 E3        29.97F
YANKTON        CLOUDY    73  72  94 E3        29.95S
$$

MNZ071-072-080-081-089-090-097-098-230600-
SOUTHWEST MINNESOTA

CITY           SKY/WX    TMP DP  RH WIND       PRES   REMARKS
FAIRMONT       CLOUDY    64  64 100 NE7       29.99F
JACKSON        CLOUDY    70  66  88 NE7       30.00F
LUVERNE        CLOUDY    72  68  88 E3        29.99F
MARSHALL       CLOUDY    73  68  83 CALM      30.00S
MONTEVIDEO     CLOUDY    72  72 100 E3        30.03R
PIPESTONE      CLOUDY    73  70  88 CALM      30.01F
REDWOOD FALLS  MOCLDY    73  70  90 NE5       29.99F
TRACY          CLOUDY    74  71  89 CALM      30.00F
WINDOM         CLOUDY    70  68  94 E6        30.00F
WORTHINGTON      N/A     70  70 100 E5        30.02R
$$

IAZ001>003-012>014-020>022-031-032-NEZ013-014-SDZ071-230600-
NORTHWEST IOWA

CITY           SKY/WX    TMP DP  RH WIND       PRES   REMARKS
CHEROKEE       CLOUDY    75  74  96 NE5       29.97F
DENISON        PTCLDY    72  72 100 N6        29.94F
ESTHERVILLE    CLOUDY    71  69  93 E5        30.00R
LE MARS        CLOUDY    75  72  88 NE9       29.96F
ORANGE CITY    CLOUDY    75  70  83 NE6       29.98F
SHELDON        CLOUDY    72  70  94 NE3       29.98S
SIOUX CITY     CLOUDY    77  71  82 CALM      29.94F
SPENCER        CLOUDY    73  69  87 NE8       30.00R
STORM LAKE     MOCLDY    75  75 100 NE10      29.98F
$$

ABBREVIATIONS USED IN REMARKS
   TC - TEMPERATURE IN CELSIUS
  WCI - WIND CHILL INDEX
   HX - HEAT INDEX
  VSB - VISIBILITY




USA.gov is the U.S. government's official web portal to all federal, state and local government web resources and services.